Johnstown, PA

1:46 PM EDT on April 26, 2017 (GMT -0400)
Johnstown-Cambria County

Weather History for KJST - November, 2010

Change the Weather History Date:

Saturday, November 27, 2010

  Actual Average Record
Temperature  
Mean Temperature 25 °F 35 °F  
Max Temperature 27 °F 40 °F 76 °F (1990)
Min Temperature 23 °F 29 °F 10 °F (1932)
Degree Days  
Heating Degree Days 40 30  
Month to date heating degree days 670  
Since 1 July heating degree days 1363  
Cooling Degree Days 0 0  
Month to date cooling degree days 0  
Year to date cooling degree days 382  
Moisture  
Dew Point 18 °F    
Average Humidity 76    
Maximum Humidity 93    
Minimum Humidity 66    
Precipitation  
Precipitation 0.00 in 0.13 in 1.43 in (1978)
Month to date precipitation 3.30  
Year to date precipitation 30.65  
Sea Level Pressure  
Sea Level Pressure 29.89 in    
Wind  
Wind Speed 20 mph (West)    
Max Wind Speed 29 mph    
Max Gust Speed 40 mph    
Visibility 7 miles    
Events Fog , Snow    
T = Trace of Precipitation, MM = Missing Value Source: NWS Daily Summary

Daily Weather History Graph

Daily Weather History Graph

Search for Another Location

Airport or City:

Trip Planner

Search our weather history database for the weather conditions in past years. The results will help you decide how hot, cold, wet, or windy it might be!

Date:

Astronomy

Nov. 27, 2010 Rise Set
Actual Time 7:14 AM EST 4:51 PM EST
Civil Twilight 6:44 AM EST 5:20 PM EST
Nautical Twilight 6:11 AM EST 5:54 PM EST
Astronomical Twilight 5:38 AM EST 6:27 PM EST
Moon 11:09 PM EST (11/27) 11:52 AM EST (11/27)
Length of Visible Light 10h 36m
Length of Day
9h 36m
Waning Gibbous, 63% of the Moon is Illuminated
Nov 27
Waning Gibbous
Nov 28
Last Quarter
Dec 5
New
Dec 13
First Quarter
Dec 21
Full

Hourly Weather History & Observations

Time (EST) Temp. Windchill Dew Point Humidity Pressure Visibility Wind Dir Wind Speed Gust Speed Precip Events Conditions
12:54 AM 24.1 °F 8.3 °F 15.1 °F 69% 29.75 in 10.0 mi West 24.2 mph 35.7 mph N/A   Overcast
1:42 AM 23.0 °F 8.0 °F 15.8 °F 74% 29.67 in 10.0 mi West 20.7 mph 31.1 mph N/A   Overcast
1:54 AM 24.1 °F 8.0 °F 15.1 °F 69% 29.75 in 10.0 mi West 25.3 mph 34.5 mph N/A   Overcast
2:20 AM 24.8 °F 9.6 °F 15.8 °F 69% 29.68 in 10.0 mi West 23.0 mph 38.0 mph N/A   Overcast
2:54 AM 24.1 °F 10.6 °F 16.0 °F 71% 29.75 in 10.0 mi West 17.3 mph 33.4 mph N/A   Overcast
3:54 AM 24.1 °F 9.4 °F 17.1 °F 75% 29.74 in 9.0 mi West 20.7 mph 33.4 mph 0.00 in   Overcast
4:54 AM 24.1 °F 7.1 °F 17.1 °F 75% 29.74 in 7.0 mi West 28.8 mph 36.8 mph 0.00 in Snow Light Snow
5:54 AM 25.0 °F 11.3 °F 18.0 °F 75% 29.75 in 8.0 mi West 18.4 mph 29.9 mph 0.00 in Snow Light Snow
6:54 AM 25.0 °F 9.5 °F 18.0 °F 75% 29.78 in 7.0 mi West 24.2 mph 33.4 mph 0.00 in Snow Light Snow
7:54 AM 25.0 °F 9.2 °F 19.0 °F 78% 29.80 in 3.0 mi West 25.3 mph 33.4 mph 0.00 in Snow Light Snow
8:07 AM 24.8 °F 9.0 °F 19.4 °F 80% 29.71 in 2.0 mi West 25.3 mph 35.7 mph 0.00 in Snow Light Snow
8:15 AM 24.8 °F 10.3 °F 19.4 °F 80% 29.72 in 1.5 mi West 20.7 mph 34.5 mph 0.00 in Snow Light Snow
8:47 AM 24.8 °F 9.3 °F 21.2 °F 86% 29.73 in 0.8 mi West 24.2 mph 40.3 mph 0.00 in Snow Light Snow
8:54 AM 25.0 °F 10.6 °F 21.0 °F 85% 29.83 in 1.0 mi West 20.7 mph 35.7 mph 0.00 in Snow Light Snow
9:13 AM 24.8 °F 9.3 °F 21.2 °F 86% 29.75 in 1.2 mi West 24.2 mph 36.8 mph 0.00 in Snow Light Snow
9:40 AM 24.8 °F 10.7 °F 21.2 °F 86% 29.77 in 1.0 mi West 19.6 mph 34.5 mph 0.00 in Snow Light Snow
9:51 AM 24.8 °F 11.5 °F 23.0 °F 93% 29.78 in 0.5 mi WNW 17.3 mph - 0.00 in Fog , Snow Snow
9:54 AM 25.0 °F 11.7 °F 23.0 °F 92% 29.87 in 0.2 mi WNW 17.3 mph - 0.00 in Fog , Snow Snow
10:28 AM 24.8 °F 9.6 °F 21.2 °F 86% 29.79 in 0.5 mi WNW 23.0 mph 39.1 mph 0.00 in Fog , Snow Snow
10:42 AM 24.8 °F 11.1 °F 21.2 °F 86% 29.80 in 1.8 mi West 18.4 mph 34.5 mph 0.00 in Snow Light Snow
10:48 AM 24.8 °F 10.3 °F 21.2 °F 86% 29.80 in 3.0 mi West 20.7 mph 31.1 mph 0.00 in Snow Light Snow
10:54 AM 25.0 °F 11.7 °F 19.0 °F 78% 29.89 in 6.0 mi West 17.3 mph 40.3 mph 0.00 in Snow Light Snow
11:50 AM 26.6 °F 12.7 °F 17.6 °F 69% 29.81 in 10.0 mi West 20.7 mph 33.4 mph 0.00 in   Overcast
11:54 AM 26.1 °F 12.7 °F 17.1 °F 69% 29.90 in 10.0 mi West 18.4 mph 33.4 mph 0.00 in   Overcast
12:54 PM 27.0 °F 14.3 °F 17.1 °F 66% 29.92 in 10.0 mi West 17.3 mph 28.8 mph N/A   Overcast
1:54 PM 27.0 °F 14.3 °F 17.1 °F 66% 29.96 in 10.0 mi West 17.3 mph 25.3 mph N/A   Overcast
2:54 PM 27.0 °F 15.2 °F 18.0 °F 69% 29.98 in 9.0 mi West 15.0 mph 25.3 mph 0.00 in Snow Light Snow
3:54 PM 26.1 °F 14.0 °F 18.0 °F 71% 30.02 in 6.0 mi West 15.0 mph 23.0 mph 0.00 in Snow Light Snow
4:04 PM 26.6 °F 15.2 °F 17.6 °F 69% 29.93 in 7.0 mi West 13.8 mph 20.7 mph 0.00 in Snow Light Snow
4:11 PM 26.6 °F 15.7 °F 17.6 °F 69% 29.94 in 8.0 mi West 12.7 mph 18.4 mph 0.00 in Snow Light Snow
4:21 PM 26.6 °F 16.8 °F 19.4 °F 74% 29.94 in 7.0 mi West 10.4 mph 18.4 mph 0.00 in Snow Light Snow
4:54 PM 25.0 °F 14.2 °F 19.0 °F 78% 30.05 in 5.0 mi West 11.5 mph - 0.00 in Snow Light Snow
5:54 PM 25.0 °F 13.1 °F 18.0 °F 75% 30.08 in 9.0 mi West 13.8 mph 23.0 mph 0.00 in   Overcast
6:05 PM 24.8 °F 13.4 °F 17.6 °F 74% 29.99 in 10.0 mi West 12.7 mph - N/A   Overcast
6:54 PM 25.0 °F 13.1 °F 18.0 °F 75% 30.11 in 10.0 mi West 13.8 mph 19.6 mph N/A   Overcast
7:14 PM 24.8 °F 13.4 °F 17.6 °F 74% 30.02 in 10.0 mi West 12.7 mph 21.9 mph N/A   Overcast
7:54 PM 25.0 °F 16.3 °F 18.0 °F 75% 30.13 in 10.0 mi West 8.1 mph - N/A   Overcast
8:54 PM 25.0 °F 15.5 °F 18.0 °F 75% 30.15 in 10.0 mi West 9.2 mph - N/A   Overcast
9:24 PM 24.8 °F 13.4 °F 17.6 °F 74% 30.06 in 10.0 mi West 12.7 mph 18.4 mph N/A   Overcast
9:54 PM 25.0 °F 14.8 °F 18.0 °F 75% 30.16 in 10.0 mi West 10.4 mph - N/A   Overcast
10:52 PM 24.8 °F 14.6 °F 17.6 °F 74% 30.08 in 10.0 mi West 10.4 mph 18.4 mph N/A   Overcast
10:54 PM 25.0 °F 13.6 °F 18.0 °F 75% 30.17 in 10.0 mi West 12.7 mph 18.4 mph N/A   Overcast
11:54 PM 25.0 °F 14.2 °F 18.0 °F 75% 30.18 in 10.0 mi West 11.5 mph - N/A   Overcast